[Iaude] MPEC Q82: 2015 GZ53 [a=18.28,e=0.27,i=3.1,H=10.3]

mpec at mpcdb1.cfa.harvard.edu mpec at mpcdb1.cfa.harvard.edu
Wed Aug 29 14:11:17 EDT 2018


M.P.E.C. 2018-Q82                                Issued 2018 Aug. 29, 18:08 UT
 
     The Minor Planet Electronic Circulars contain information on unusual
         minor planets and routine data on comets.  They are published
    on behalf of Division F of the International Astronomical Union by the
          Minor Planet Center, Smithsonian Astrophysical Observatory,
                          Cambridge, MA 02138, U.S.A.

             Prepared using the Tamkin Foundation Computer Network

                              MPC at CFA.HARVARD.EDU
            URL https://www.minorplanetcenter.net/    ISSN 1523-6714


                                   2015 GZ53
 
Observations:
     K15G53Z @C2015 02 17.59668 13 38 59.730-07 16 31.24         21.8 rqEQ082568
     K15G53Z @C2015 02 17.63771 13 38 59.566-07 16 29.79         21.8 rqEQ082568
     K15G53Z @C2015 02 20.63083 13 38 47.162-07 14 35.85         21.9 rqEQ082568
     K15G53Z @C2015 03 18.57516 13 35 32.607-06 50 39.40         21.6 rqEQ082568
     K15G53Z @C2015 03 18.62254 13 35 32.119-06 50 36.21         21.6 rqEQ082568
     K15G53Z @C2015 03 20.57938 13 35 12.181-06 48 22.29         21.5 rqEQ082568
     K15G53Z @C2015 04 11.50547 13 31 00.687-06 21 36.40         21.3 rqEQ082568
     K15G53Z*@C2015 04 13.36971 13 30 38.043-06 19 17.44         21.3 rqEQ082568
     K15G53Z @C2015 04 13.41068 13 30 37.528-06 19 14.37         21.4 rqEQ082568
     K15G53Z @C2015 04 13.51324 13 30 36.260-06 19 06.79         21.4 rqEQ082568
     K15G53Z @C2015 04 19.41044 13 29 24.556-06 11 53.40         21.6 rqEQ082568
     K15G53Z @C2015 04 19.52742 13 29 23.106-06 11 44.92         21.5 rqEQ082568
     K15G53Z @C2015 05 18.27664 13 24 09.724-05 42 03.48         21.7 rqEQ082568
     K15G53Z @C2015 05 18.32493 13 24 09.278-05 42 01.17         21.7 rqEQ082568
     K15G53Z @C2015 06 20.27498 13 21 09.198-05 28 53.97         21.7 rqEQ082568
     K15G53Z @C2015 06 20.31583 13 21 09.125-05 28 54.05         21.6 rqEQ082568
     K15G53Z @C2015 06 22.31959 13 21 06.663-05 29 00.91         21.8 rqEQ082568
     K15G53Z @C2015 07 14.27191 13 21 48.699-05 37 18.52         22.1 rqEQ082568
     K15G53Z @C2015 07 20.26475 13 22 22.027-05 41 44.72         22.0 rqEQ082568
     K15G53Z @C2016 02 04.63948 14 10 11.396-10 02 15.65         22.1 wqEQ082568
     K15G53Z @C2016 02 11.61799 14 10 19.229-10 01 09.89         22.1 wqEQ082568
     K15G53Z @C2016 03 11.62520 14 08 29.154-09 44 45.92         21.8 wqEQ082568
     K15G53Z @C2016 03 12.49776 14 08 22.652-09 44 00.94         22.1 wqEQ082568
     K15G53Z @C2016 04 03.49385 14 04 51.627-09 21 49.91         22.0 wqEQ082568
     K15G53Z @C2016 04 09.47502 14 03 42.795-09 15 04.80         21.7 wqEQ082568
 
Observer details:
568 Mauna Kea.  Observers M. T. Bannister, J. J. Kavelaars, B. J. Gladman,
    J.-M. Petit, T. Burdullis.  Measurers S. D. J. Gwyn, Y.-T. Chen,
    M. Alexandersen.  3.6-m Canada-France-Hawaii Telescope + CCD.
 
Orbital elements:
2015 GZ53
Epoch 2018 Mar. 23.0 TT = JDT 2458200.5                 MPC
M  28.12149              (2000.0)            P               Q
n   0.01260793     Peri.   36.32622     -0.99820021     -0.04950841
a  18.2826973      Node   140.79410     +0.03408173     -0.93265944
e   0.2739727      Incl.    3.06896     +0.04934355     -0.35734476
P  78.17           H   10.3           G   0.15           U   2
Residuals in seconds of arc
150217 568  0.0   0.0     150413 568  0.0   0.0     150720 568  0.0   0.0
150217 568  0.0   0.0     150419 568  0.0   0.0     160204 568  0.0   0.0
150220 568  0.0   0.0     150419 568  0.0   0.0     160211 568  0.0   0.0
150318 568  0.0   0.0     150518 568  0.1+  0.0     160311 568  0.1-  0.0
150318 568  0.0   0.0     150518 568  0.1+  0.0     160312 568  0.0   0.0
150320 568  0.1-  0.0     150620 568  0.0   0.0     160403 568  0.0   0.0
150411 568  0.0   0.0     150620 568  0.0   0.0     160409 568  0.0   0.0
150413 568  0.0   0.1+    150622 568  0.0   0.0
150413 568  0.1-  0.1+    150714 568  0.0   0.0

Ephemeris:
2015 GZ53                a,e,i = 18.28, 0.27, 3                  q = 13.274
Date    TT    R. A. (2000) Decl.     Delta      r     Elong.  Phase     V
2018 07 30    14 51 18.4 -13 10 37  14.2614 14.4339    97.8     4.0    22.2
...
2018 08 14    14 52 23.2 -13 18 43  14.5230 14.4473    83.7     4.0    22.3
...
2018 08 22    14 53 21.3 -13 24 41  14.6608 14.4545    76.3     3.9    22.3
...
2018 08 28    14 54 15.0 -13 29 50  14.7615 14.4599    70.7     3.8    22.3
2018 08 29    14 54 24.8 -13 30 45  14.7780 14.4608    69.8     3.8    22.3
2018 08 30    14 54 34.8 -13 31 41  14.7944 14.4617    68.9     3.7    22.3
...
2018 09 05    14 55 39.5 -13 37 32  14.8907 14.4671    63.4     3.6    22.3
...
2018 09 13    14 57 17.8 -13 46 04  15.0122 14.4743    56.1     3.3    22.3
...
2018 09 28    15 00 55.3 -14 03 52  15.2127 14.4878    42.4     2.7    22.3

A. U. Tomatic                (C) Copyright 2018 MPC           M.P.E.C. 2018-Q82



More information about the Iaude mailing list